Location: Fatehalanka
(16.3139°N, 80.8379°E)
Time: 20:26:45
(UTC+00:00)

Cosmos 923 Rocket - Pass Details

Date: 14 May 2026
Orbit: 755 x 780 km, 74.0° (Epoch: 7 June)

Event Time Altitude Azimuth Distance (km) Brightness Sun altitude
Exits shadow 22:08:55 81° 293° (WNW) 791 3.9 -26.3°
Drops below altitude 10° 22:14:09 10° 11° (N) 2,324 7.0 -25.3°
Sets 22:16:32 0° 12° (NNE) 3,250 7.8 -24.8°
